Weather History for Wright-Patt AFB, OH

Change the Weather History Date:

Tuesday, July 23, 2013

  Actual Average Record
Temperature  
Mean Temperature 76 °F -  
Max Temperature 88 °F 82 °F 97 °F (2012)
Min Temperature 66 °F 61 °F 56 °F (2007)
Cooling Degree Days 12    
Growing Degree Days 26 (Base 50)    
Moisture  
Dew Point 69 °F    
Average Humidity 81    
Maximum Humidity 100    
Minimum Humidity 54    
Precipitation  
Precipitation 0.00 in - - ()
Sea Level Pressure  
Sea Level Pressure 29.79 in    
Wind  
Wind Speed 6 mph (SW)    
Max Wind Speed 18 mph    
Max Gust Speed 24 mph    
Visibility 7 miles    
Events Fog , Thunderstorm    
Averages and records for this station are not official NWS values.
T = Trace of Precipitation, MM = Missing Value Source: NWS Daily Summary

Daily Weather History Graph

Daily Weather History Graph

Search for Another Location

Airport:

Trip Planner

Search our weather history database for the weather conditions in past years. The results will help you decide how hot, cold, wet, or windy it might be!

Date:

Astronomy

Jul. 23, 2013 Rise Set
Actual Time 6:27 AM EDT 8:57 PM EDT
Civil Twilight 5:56 AM EDT 9:28 PM EDT
Nautical Twilight 5:17 AM EDT 10:07 PM EDT
Astronomical Twilight 4:34 AM EDT 10:49 PM EDT
Moon 9:25 PM EDT (7/23) 7:34 AM EDT (7/23)
Length of Visible Light 15h 32m
Length of Day
14h 30m
Full, 99% of the Moon is Illuminated
Jul 23
Full
Jul 29
Last Quarter
Aug 6
New
Aug 14
First Quarter
Aug 20
Full

Hourly Weather History & Observations

Time (EDT) Temp. Heat Index Dew Point Humidity Pressure Visibility Wind Dir Wind Speed Gust Speed Precip Events Conditions
12:08 AM 69.8 °F - 68.0 °F 94% 29.83 in 9.0 mi SSW 2.3 mph - N/A Fog Shallow Fog
12:18 AM 68.0 °F - 68.0 °F 100% 29.83 in 8.0 mi SSW 2.3 mph - N/A Fog Shallow Fog
12:48 AM 68.0 °F - 68.0 °F 100% 29.83 in 3.0 mi SW 2.3 mph - N/A   Partly Cloudy
12:58 AM 68.5 °F - 68.4 °F 99% 29.83 in 3.0 mi Calm Calm - N/A   Partly Cloudy
1:08 AM 68.0 °F - 68.0 °F 100% 29.83 in 3.0 mi ESE 1.2 mph - N/A   Partly Cloudy
1:38 AM 68.0 °F - 68.0 °F 100% 29.82 in 5.0 mi South 3.5 mph - N/A   Clear
1:48 AM 68.0 °F - 68.0 °F 100% 29.82 in 5.0 mi South 3.5 mph - N/A   Clear
1:58 AM 68.2 °F - 67.8 °F 99% 29.83 in 2.0 mi SSW 4.6 mph - N/A   Partly Cloudy
2:08 AM 68.0 °F - 68.0 °F 100% 29.83 in 2.5 mi SW 4.6 mph - N/A   Partly Cloudy
2:48 AM 68.0 °F - 68.0 °F 100% 29.84 in 1.5 mi SSW 4.6 mph - N/A   Clear
2:58 AM 66.2 °F - 66.2 °F 100% 29.83 in 2.0 mi SSW 3.5 mph - N/A   Clear
3:08 AM 66.2 °F - 66.2 °F 100% 29.83 in 2.5 mi SW 4.6 mph - N/A   Clear
3:58 AM 68.0 °F - 67.8 °F 99% 29.83 in 2.5 mi Variable 2.3 mph - N/A   Clear
4:58 AM 67.5 °F - 67.3 °F 99% 29.82 in 2.5 mi South 3.5 mph - N/A   Clear
5:58 AM 67.8 °F - 67.6 °F 99% 29.81 in 2.0 mi South 3.5 mph - N/A   Partly Cloudy
6:08 AM 68.0 °F - 68.0 °F 100% 29.81 in 3.0 mi South 3.5 mph - N/A   Scattered Clouds
6:48 AM 68.0 °F - 68.0 °F 100% 29.81 in 4.0 mi SE 3.5 mph - N/A   Scattered Clouds
6:58 AM 68.0 °F - 67.5 °F 98% 29.81 in 4.0 mi South 2.3 mph - N/A   Scattered Clouds
7:58 AM 70.7 °F - 69.3 °F 95% 29.80 in 7.0 mi South 6.9 mph - N/A   Scattered Clouds
8:58 AM 74.3 °F - 70.5 °F 88% 29.81 in 10.0 mi SW 6.9 mph - N/A   Scattered Clouds
9:58 AM 76.8 °F - 70.7 °F 81% 29.80 in 10.0 mi SW 10.4 mph - N/A   Scattered Clouds
10:58 AM 79.9 °F - 72.1 °F 77% 29.80 in 10.0 mi SW 12.7 mph - N/A   Mostly Cloudy
11:58 AM 83.3 °F 89.3 °F 72.9 °F 71% 29.81 in 10.0 mi WSW 12.7 mph - N/A   Scattered Clouds
12:38 PM 84.2 °F 89.6 °F 71.6 °F 66% 29.81 in 10.0 mi WSW 11.5 mph - N/A Thunderstorm Mostly Cloudy
12:58 PM 84.7 °F 91.0 °F 72.5 °F 67% 29.79 in 10.0 mi WSW 15.0 mph 24.2 mph N/A Thunderstorm Mostly Cloudy
1:03 PM 82.4 °F 86.3 °F 69.8 °F 66% 29.79 in 10.0 mi SW 13.8 mph 24.2 mph N/A   Mostly Cloudy
1:58 PM 85.5 °F 92.6 °F 73.6 °F 67% 29.77 in 10.0 mi SW 11.5 mph - N/A   Partly Cloudy
2:58 PM 87.1 °F 93.6 °F 72.3 °F 61% 29.75 in 10.0 mi SW 13.8 mph 21.9 mph N/A   Partly Cloudy
3:12 PM 87.8 °F 95.6 °F 73.4 °F 62% 29.75 in 10.0 mi SW 18.4 mph - N/A Thunderstorm Thunderstorm
3:15 PM 87.8 °F 95.6 °F 73.4 °F 62% 29.75 in 10.0 mi SW 17.3 mph 24.2 mph N/A Thunderstorm Thunderstorm
3:42 PM 84.2 °F 88.4 °F 69.8 °F 62% 29.75 in 10.0 mi WSW 12.7 mph - N/A Thunderstorm Scattered Clouds
3:52 PM 86.0 °F 89.4 °F 68.0 °F 55% 29.76 in 10.0 mi WSW 10.4 mph - N/A   Scattered Clouds
3:58 PM 85.3 °F 88.8 °F 68.4 °F 57% 29.75 in 10.0 mi SW 11.5 mph - N/A   Mostly Cloudy
4:58 PM 86.4 °F 89.7 °F 68.0 °F 54% 29.74 in 10.0 mi SSW 13.8 mph - N/A   Scattered Clouds
5:40 PM 86.0 °F 90.4 °F 69.8 °F 58% 29.74 in 10.0 mi SW 13.8 mph - N/A Thunderstorm Scattered Clouds
5:58 PM 86.0 °F 90.7 °F 70.3 °F 59% 29.73 in 10.0 mi SW 15.0 mph - N/A Thunderstorm Scattered Clouds
6:34 PM 80.6 °F 83.2 °F 68.0 °F 65% 29.74 in 10.0 mi SW 15.0 mph - N/A   Scattered Clouds
6:58 PM 82.4 °F 86.3 °F 69.8 °F 66% 29.73 in 10.0 mi WSW 8.1 mph - N/A   Mostly Cloudy
7:58 PM 81.1 °F 83.7 °F 67.3 °F 63% 29.74 in 10.0 mi WNW 10.4 mph - N/A   Scattered Clouds
8:58 PM 78.8 °F - 65.8 °F 64% 29.75 in 10.0 mi NW 9.2 mph - N/A   Scattered Clouds
9:58 PM 75.7 °F - 66.9 °F 74% 29.79 in 10.0 mi NW 8.1 mph - N/A   Scattered Clouds
10:58 PM 73.2 °F - 63.3 °F 71% 29.82 in 10.0 mi NNW 11.5 mph - N/A   Scattered Clouds
11:58 PM 70.2 °F - 63.5 °F 79% 29.83 in 10.0 mi NW 9.2 mph - N/A   Partly Cloudy